Tracking 29892 objects as of 21-Nov-2024
HD Live streaming from Space Station
objects crossing your sky now

THOR BURNER 2 R/B

Track THOR BURNER 2 R/B now!
10-day predictions


NORAD ID: 3522
Int'l Code: 1968-092B
Perigee: 775.7 km
Apogee: 818.4 km
Inclination: 98.7 °
Period: 100.7 minutes
Semi major axis: 7168 km
RCS: 1.9676 m2 (large)
Launch date: October 23, 1968
Source: United States (US)
Launch site: AIR FORCE WESTERN TEST RANGE (AFWTR)

Note: This is a ROCKET BODY
Your satellite tracking list
Your tracking list is empty




NASA's NSSDC Master Catalog

Two Line Element Set (TLE):
1 03522U 68092B   24325.83596280  .00000486  00000-0  20253-3 0  9997
2 03522  98.7364 101.2387 0029737  47.0661 313.3009 14.30549101918280
Source of the keplerian elements: AFSPC